Olathe New Century, KS

5:49 AM CDT on April 20, 2018 (GMT -0500)
New Century Aircenter

Weather History for KIXD - October, 2013

Change the Weather History Date:

Monday, October 28, 2013

  Actual Average Record
Temperature  
Mean Temperature 50 °F -  
Max Temperature 63 °F 60 °F 80 °F (2016)
Min Temperature 37 °F 42 °F 27 °F (2017)
Degree Days  
Heating Degree Days 16    
Moisture  
Dew Point 42 °F    
Average Humidity 75    
Maximum Humidity 89    
Minimum Humidity 60    
Precipitation  
Precipitation 0.00 in - - ()
Sea Level Pressure  
Sea Level Pressure 30.11 in    
Wind  
Wind Speed 6 mph (SSE)    
Max Wind Speed 13 mph    
Max Gust Speed -    
Visibility 9 miles    
Events      
Averages and records for this station are not official NWS values.
T = Trace of Precipitation, MM = Missing Value Source: NWS Daily Summary

Daily Weather History Graph

Daily Weather History Graph

Search for Another Location

Airport or City:

Astronomy

Oct. 28, 2013 Rise Set
Actual Time 7:42 AM CDT 6:23 PM CDT
Civil Twilight 7:15 AM CDT 6:50 PM CDT
Nautical Twilight 6:43 AM CDT 7:22 PM CDT
Astronomical Twilight 6:12 AM CDT 7:53 PM CDT
Moon 1:39 AM CDT (10/28) 3:02 PM CDT (10/28)
Length of Visible Light 11h 35m
Length of Day
10h 40m
Waning Crescent, 34% of the Moon is Illuminated
Oct 28
Waning Crescent
Nov 3
New
Nov 9
First Quarter
Nov 17
Full
Nov 25
Last Quarter

Hourly Weather History & Observations

Time (CDT) Temp. Windchill Dew Point Humidity Pressure Visibility Wind Dir Wind Speed Gust Speed Precip Events Conditions
12:53 AM 43.0 °F 39.5 °F 30.0 °F 60% 30.01 in 10.0 mi SE 5.8 mph - N/A   Clear
1:53 AM 41.0 °F 38.0 °F 28.9 °F 62% 30.01 in 10.0 mi SSE 4.6 mph - N/A   Clear
2:53 AM 37.9 °F 35.5 °F 28.9 °F 70% 30.02 in 10.0 mi South 3.5 mph - N/A   Clear
3:53 AM 39.0 °F 35.7 °F 30.0 °F 70% 30.03 in 10.0 mi SSE 4.6 mph - N/A   Clear
4:53 AM 37.0 °F 31.6 °F 30.0 °F 76% 30.04 in 10.0 mi SSE 6.9 mph - N/A   Clear
5:53 AM 37.9 °F 34.4 °F 30.0 °F 73% 30.07 in 10.0 mi SSE 4.6 mph - N/A   Clear
6:53 AM 42.1 °F 40.2 °F 32.0 °F 67% 30.08 in 10.0 mi SSE 3.5 mph - N/A   Clear
7:53 AM 41.0 °F 38.0 °F 33.1 °F 73% 30.10 in 10.0 mi SSE 4.6 mph - N/A   Clear
8:53 AM 45.0 °F 40.6 °F 37.0 °F 74% 30.13 in 10.0 mi South 8.1 mph - N/A   Clear
9:53 AM 51.1 °F - 43.0 °F 74% 30.14 in 10.0 mi South 4.6 mph - N/A   Clear
10:53 AM 57.0 °F - 46.9 °F 69% 30.14 in 10.0 mi South 8.1 mph - N/A   Clear
11:53 AM 60.1 °F - 48.9 °F 67% 30.15 in 10.0 mi South 6.9 mph - N/A   Clear
12:53 PM 62.1 °F - 48.9 °F 62% 30.14 in 10.0 mi South 8.1 mph - N/A   Clear
1:53 PM 61.0 °F - 48.0 °F 62% 30.13 in 10.0 mi SSW 12.7 mph - N/A   Clear
2:53 PM 59.0 °F - 48.9 °F 69% 30.13 in 10.0 mi SSW 9.2 mph - N/A   Clear
3:53 PM 57.9 °F - 48.9 °F 72% 30.13 in 10.0 mi SSE 10.4 mph - N/A   Clear
4:53 PM 55.0 °F - 48.0 °F 77% 30.13 in 10.0 mi SSE 9.2 mph - N/A   Clear
5:21 PM 53.6 °F - 48.2 °F 82% 30.13 in 10.0 mi South 9.2 mph - N/A   Mostly Cloudy
5:53 PM 53.1 °F - 48.0 °F 83% 30.14 in 9.0 mi SE 6.9 mph - N/A   Scattered Clouds
6:53 PM 50.0 °F - 46.9 °F 89% 30.14 in 8.0 mi ENE 5.8 mph - N/A   Clear
7:53 PM 51.1 °F - 48.0 °F 89% 30.14 in 6.0 mi East 4.6 mph - N/A   Clear
8:53 PM 51.1 °F - 48.0 °F 89% 30.14 in 7.0 mi East 5.8 mph - N/A   Clear
9:53 PM 51.1 °F - 48.0 °F 89% 30.15 in 7.0 mi ENE 5.8 mph - N/A   Clear
10:53 PM 52.0 °F - 48.0 °F 86% 30.14 in 9.0 mi ESE 6.9 mph - N/A   Clear
11:53 PM 53.1 °F - 48.0 °F 83% 30.12 in 10.0 mi ESE 9.2 mph - N/A   Partly Cloudy